Location: Bay Creek Structure Number 5 Dam
(37.4851°N, 88.6884°W)
Time: 11:12:54
(UTC+00:00)

SL-4 R/B - Pass Details

Date: 13 October 2019
Orbit: 429 x 667 km, 51.6° (Epoch: 13 November)

Event Time Altitude Azimuth Distance (km) Brightness Sun altitude
Rises 23:51:54 0° 317° (NW) 2,646 6.1 -7.0°
Reaches altitude 10° 23:54:46 10° 338° (NNW) 1,704 4.8 -7.6°
Maximum altitude 23:57:23 17° 21° (NNE) 1,274 3.7 -8.1°
Drops below altitude 10° 23:59:52 10° 64° (ENE) 1,618 3.8 -8.6°
Enters shadow 23:59:55 10° 65° (ENE) 1,630 3.8 -8.6°
